This is the latest recevied weather packets stored in our database for station/object N9OJR. If no packets are shown the sender has not sent any weather packets the latest 10 day(s).
| Time | Temp. | Humidity | Pressure | Rain* | Wind** | Luminosity | Snow |
|---|---|---|---|---|---|---|---|
| 1778061083 | 6.67° C | 99% | 1003.4 hPa | 0 mm | - | 0 W/m² | - |
| 1778060781 | 6.67° C | 99% | 1003.8 hPa | 0 mm | - | 0 W/m² | - |
| 1778060478 | 6.67° C | 99% | 1004 hPa | 1.27 mm | - | 0 W/m² | - |
| 1778060177 | 6.67° C | 99% | 1004.2 hPa | 0 mm | - | 0 W/m² | - |
| 1778059874 | 6.67° C | 99% | 1004.5 hPa | 1.78 mm | - | 0 W/m² | - |
| 1778059572 | 6.67° C | 99% | 1004.6 hPa | 1.78 mm | - | 0 W/m² | - |
| 1778059268 | 6.67° C | 99% | 1004.5 hPa | 0 mm | - | 0 W/m² | - |
| 1778058966 | 6.67° C | 99% | 1004.5 hPa | 1.27 mm | - | 0 W/m² | - |
| 1778058664 | 6.67° C | 99% | 1004.7 hPa | 1.27 mm | - | 0 W/m² | - |
| 1778058361 | 6.67° C | 99% | 1004.5 hPa | 1.78 mm | - | 0 W/m² | - |
| 1778058057 | 6.67° C | 99% | 1004.2 hPa | 1.78 mm | - | 0 W/m² | - |
| 1778057754 | 6.67° C | 99% | 1004.3 hPa | 0 mm | - | 0 W/m² | - |
| 1778057451 | 6.67° C | 99% | 1004.3 hPa | 0 mm | - | 0 W/m² | - |
| 1778057148 | 6.67° C | 99% | 1004.2 hPa | 0 mm | - | 0 W/m² | - |
| 1778056844 | 6.67° C | 99% | 1004.6 hPa | 0 mm | - | 0 W/m² | - |
| 1778056541 | 6.11° C | 99% | 1004.5 hPa | 0 mm | - | 0 W/m² | - |
| 1778056238 | 6.11° C | 99% | 1004.5 hPa | 1.27 mm | - | 0 W/m² | - |
| 1778055935 | 6.11° C | 99% | 1004.5 hPa | 1.27 mm | - | 0 W/m² | - |
| 1778055631 | 6.11° C | 99% | 1004.2 hPa | 0 mm | - | 0 W/m² | - |
| 1778055329 | 6.67° C | 99% | 1003.8 hPa | 0 mm | - | 0 W/m² | - |
| 1778055026 | 6.67° C | 99% | 1004 hPa | 1.78 mm | - | 0 W/m² | - |
| 1778054724 | 6.67° C | 99% | 1003.9 hPa | 3.05 mm | - | 0 W/m² | - |
| 1778054421 | 6.67° C | 99% | 1003.8 hPa | 3.05 mm | - | 0 W/m² | - |
| 1778054119 | 6.67° C | 99% | 1004.1 hPa | 3.05 mm | - | 0 W/m² | - |
| 1778053815 | 6.67° C | 99% | 1003.7 hPa | 3.05 mm | - | 0 W/m² | - |
* Rain latest hour (hover to see other rain measurements)
** Current wind speed in m/s (hover to see current wind gust speed)